FFT2443 KPNS-KDEN

Flight info

Callsign FFT2443
Flight time 2h 59m
Altitude 36000
Route INBRD ZYDCO KAMEN JABDO KIISS CLASH5
Aircraft A20N/M-SDE3FGHIJ3J4RWXYZ/LB1

Departure

Time 2026-05-08 00:43
Airport Pensacola International Airport (KPNS)

Arrival

Time 2026-05-08 03:42
Airport Denver International Airport (KDEN)
Time Latitude Longitude Altitude Speed Heading
2026-05-08 00:05 30.47563 -87.19178 128 ft 0 kts 251°
2026-05-08 00:34 30.47570 -87.19156 126 ft 4 kts 237°
2026-05-08 00:34 30.47588 -87.19133 129 ft 4 kts 210°
2026-05-08 00:34 30.47611 -87.19125 129 ft 4 kts 156°
2026-05-08 00:35 30.47619 -87.19130 129 ft 0 kts 130°
2026-05-08 00:38 30.47596 -87.19111 133 ft 5 kts 159°
2026-05-08 00:38 30.47549 -87.19096 125 ft 9 kts 166°
2026-05-08 00:38 30.47480 -87.19077 125 ft 12 kts 167°
2026-05-08 00:38 30.47435 -87.19065 135 ft 1 kts 167°
2026-05-08 00:39 30.47419 -87.19046 126 ft 7 kts 113°
2026-05-08 00:39 30.47466 -87.19005 129 ft 11 kts 354°
2026-05-08 00:39 30.47555 -87.19028 126 ft 15 kts 347°
2026-05-08 00:39 30.47661 -87.19057 128 ft 16 kts 347°
2026-05-08 00:40 30.47758 -87.19083 126 ft 15 kts 347°
2026-05-08 00:40 30.47869 -87.19113 126 ft 17 kts 347°
2026-05-08 00:40 30.47976 -87.19141 127 ft 16 kts 347°
2026-05-08 00:40 30.48081 -87.19171 130 ft 16 kts 346°
2026-05-08 00:41 30.48178 -87.19196 130 ft 13 kts 348°
2026-05-08 00:41 30.48250 -87.19190 127 ft 10 kts 42°
2026-05-08 00:41 30.48272 -87.19118 129 ft 8 kts 77°
2026-05-08 00:41 30.48260 -87.19058 131 ft 9 kts 146°
2026-05-08 00:42 30.48206 -87.19041 128 ft 9 kts 167°
2026-05-08 00:42 30.47930 -87.18967 131 ft 79 kts 167°
2026-05-08 00:42 30.47172 -87.18766 126 ft 141 kts 167°
2026-05-08 00:42 30.46138 -87.18513 579 ft 151 kts 168°
2026-05-08 00:43 30.45105 -87.18253 1260 ft 152 kts 167°
2026-05-08 00:43 30.44025 -87.17961 1752 ft 169 kts 167°
2026-05-08 00:43 30.42941 -87.17351 2258 ft 187 kts 135°
2026-05-08 00:43 30.42318 -87.15945 2720 ft 213 kts 99°
2026-05-08 00:44 30.42430 -87.14137 3092 ft 239 kts 77°
2026-05-08 00:44 30.42674 -87.12823 3414 ft 255 kts 72°
2026-05-08 00:44 30.43551 -87.10994 3903 ft 274 kts 43°
2026-05-08 00:44 30.45151 -87.09794 4685 ft 276 kts 18°
2026-05-08 00:45 30.46975 -87.09061 5649 ft 277 kts
2026-05-08 00:45 30.48877 -87.08603 6555 ft 281 kts
2026-05-08 00:45 30.50808 -87.08142 7447 ft 285 kts
2026-05-08 00:45 30.52767 -87.07667 8282 ft 290 kts
2026-05-08 00:46 30.54762 -87.07178 9075 ft 295 kts
2026-05-08 00:46 30.56781 -87.06680 9868 ft 299 kts
2026-05-08 00:46 30.58842 -87.06172 10497 ft 311 kts
2026-05-08 00:46 30.61036 -87.05636 10760 ft 334 kts
2026-05-08 00:47 30.63376 -87.05066 11129 ft 350 kts
2026-05-08 00:47 30.65773 -87.04474 11886 ft 353 kts
2026-05-08 00:47 30.68189 -87.03873 12688 ft 356 kts
2026-05-08 00:47 30.70632 -87.03267 13398 ft 361 kts
2026-05-08 00:48 30.73122 -87.02748 14019 ft 362 kts 356°
2026-05-08 00:48 30.75592 -87.03017 14713 ft 352 kts 338°
2026-05-08 00:48 30.77792 -87.04140 15374 ft 343 kts 320°
2026-05-08 00:48 30.79533 -87.05962 16080 ft 333 kts 303°
2026-05-08 00:49 30.80690 -87.08224 16757 ft 328 kts 288°
2026-05-08 00:49 30.81219 -87.10789 17421 ft 326 kts 272°
2026-05-08 00:49 30.81314 -87.13423 18105 ft 327 kts 270°
2026-05-08 00:49 30.81400 -87.16073 18766 ft 329 kts 270°
2026-05-08 00:50 30.81492 -87.18754 19356 ft 333 kts 270°
2026-05-08 00:50 30.81586 -87.21456 19946 ft 336 kts 270°
2026-05-08 00:50 30.81682 -87.24188 20500 ft 339 kts 270°
2026-05-08 00:50 30.81780 -87.26939 21094 ft 342 kts 270°
2026-05-08 00:51 30.81877 -87.29718 21628 ft 345 kts 270°
2026-05-08 00:51 30.81974 -87.32515 22166 ft 348 kts 270°
2026-05-08 00:51 30.82072 -87.35342 22671 ft 351 kts 270°
2026-05-08 00:51 30.82170 -87.38191 23188 ft 354 kts 270°
2026-05-08 00:52 30.82267 -87.41062 23670 ft 357 kts 271°
2026-05-08 00:52 30.82365 -87.43958 24156 ft 359 kts 271°
2026-05-08 00:52 30.82463 -87.46879 24641 ft 362 kts 271°
2026-05-08 00:52 30.82561 -87.49809 25097 ft 364 kts 271°
2026-05-08 00:53 30.82660 -87.52765 25555 ft 366 kts 270°
2026-05-08 00:53 30.82756 -87.55690 26012 ft 368 kts 270°
2026-05-08 00:53 30.82853 -87.58671 26446 ft 370 kts 270°
2026-05-08 00:53 30.82950 -87.61671 26865 ft 372 kts 270°
2026-05-08 00:54 30.83047 -87.64686 27271 ft 373 kts 270°
2026-05-08 00:54 30.83144 -87.67708 27673 ft 375 kts 271°
2026-05-08 00:54 30.83241 -87.70748 28052 ft 377 kts 270°
2026-05-08 00:54 30.83338 -87.73804 28414 ft 379 kts 270°
2026-05-08 00:55 30.83434 -87.76871 28783 ft 380 kts 270°
2026-05-08 00:55 30.83529 -87.79955 29115 ft 382 kts 270°
2026-05-08 00:55 30.83624 -87.83051 29460 ft 384 kts 270°
2026-05-08 00:55 30.83719 -87.86163 29821 ft 385 kts 270°
2026-05-08 00:56 30.83814 -87.89285 30176 ft 387 kts 270°
2026-05-08 00:56 30.83908 -87.92422 30512 ft 389 kts 270°
2026-05-08 00:56 30.84002 -87.95572 30844 ft 391 kts 270°
2026-05-08 00:56 30.84096 -87.98737 31202 ft 392 kts 270°
2026-05-08 00:57 30.84190 -88.01902 31618 ft 391 kts 270°
2026-05-08 00:57 30.84282 -88.05050 32091 ft 388 kts 270°
2026-05-08 00:57 30.84373 -88.08182 32511 ft 387 kts 270°
2026-05-08 00:57 30.84462 -88.11300 32938 ft 384 kts 269°
2026-05-08 00:58 30.84550 -88.14401 33368 ft 382 kts 269°
2026-05-08 00:58 30.84636 -88.17438 33747 ft 380 kts 269°
2026-05-08 00:58 30.84722 -88.20513 34103 ft 379 kts 269°
2026-05-08 00:58 30.84806 -88.23569 34474 ft 377 kts 269°
2026-05-08 00:59 30.84890 -88.26618 34794 ft 376 kts 269°
2026-05-08 00:59 30.84972 -88.29654 35102 ft 375 kts 269°
2026-05-08 00:59 30.85053 -88.32682 35397 ft 374 kts 269°
2026-05-08 00:59 30.85134 -88.35709 35674 ft 374 kts 269°
2026-05-08 01:00 30.85214 -88.38726 35934 ft 373 kts 269°
2026-05-08 01:00 30.85371 -88.44742 36017 ft 369 kts 269°
2026-05-08 01:01 30.85525 -88.50684 36018 ft 370 kts 269°
2026-05-08 01:01 30.85675 -88.56672 36011 ft 369 kts 269°
2026-05-08 01:02 30.85823 -88.62647 36007 ft 370 kts 269°
2026-05-08 01:02 30.85968 -88.68628 36008 ft 369 kts 269°
2026-05-08 01:03 30.86112 -88.74607 36004 ft 369 kts 269°
2026-05-08 01:03 30.86252 -88.80582 36000 ft 369 kts 269°
2026-05-08 01:04 30.86389 -88.86545 36005 ft 368 kts 269°
2026-05-08 01:04 30.86522 -88.92508 36004 ft 368 kts 269°
2026-05-08 01:05 30.86653 -88.98424 36004 ft 368 kts 269°
2026-05-08 01:05 30.86782 -89.04378 36002 ft 368 kts 269°
2026-05-08 01:06 30.86908 -89.10327 36005 ft 368 kts 269°
2026-05-08 01:06 30.87030 -89.16272 36010 ft 368 kts 269°
2026-05-08 01:07 30.87151 -89.22225 36019 ft 368 kts 269°
2026-05-08 01:07 30.87269 -89.28176 36021 ft 368 kts 269°
2026-05-08 01:08 30.87383 -89.34129 36023 ft 368 kts 269°
2026-05-08 01:08 30.87496 -89.40089 36025 ft 369 kts 269°
2026-05-08 01:09 30.87606 -89.46054 36037 ft 369 kts 269°
2026-05-08 01:09 30.87713 -89.52023 36039 ft 369 kts 269°
2026-05-08 01:10 30.87816 -89.57962 36051 ft 369 kts 269°
2026-05-08 01:10 30.87917 -89.63953 36056 ft 370 kts 269°
2026-05-08 01:11 30.88016 -89.69939 36049 ft 370 kts 269°
2026-05-08 01:11 30.88112 -89.75916 36048 ft 369 kts 269°
2026-05-08 01:12 30.88206 -89.81887 36046 ft 369 kts 269°
2026-05-08 01:12 30.88296 -89.87854 36045 ft 368 kts 269°
2026-05-08 01:13 30.88383 -89.93776 36052 ft 368 kts 269°
2026-05-08 01:13 30.88468 -89.99777 36050 ft 368 kts 269°
2026-05-08 01:14 30.88551 -90.05702 36044 ft 368 kts 268°
2026-05-08 01:14 30.88630 -90.11663 36051 ft 368 kts 268°
2026-05-08 01:15 30.88827 -90.17629 36039 ft 370 kts 274°
2026-05-08 01:15 30.90319 -90.23434 36038 ft 381 kts 289°
2026-05-08 01:16 30.93375 -90.28608 36046 ft 398 kts 304°
2026-05-08 01:16 30.97110 -90.33306 36048 ft 398 kts 303°
2026-05-08 01:17 31.00854 -90.38054 36058 ft 397 kts 303°
2026-05-08 01:17 31.04592 -90.42807 36055 ft 398 kts 303°
2026-05-08 01:18 31.08327 -90.47560 36062 ft 397 kts 303°
2026-05-08 01:18 31.12062 -90.52317 36063 ft 397 kts 303°
2026-05-08 01:19 31.15786 -90.57069 36061 ft 396 kts 303°
2026-05-08 01:19 31.19479 -90.61789 36062 ft 396 kts 303°
2026-05-08 01:20 31.23192 -90.66535 36062 ft 395 kts 302°
2026-05-08 01:20 31.26899 -90.71282 36057 ft 395 kts 302°
2026-05-08 01:21 31.30598 -90.76026 36060 ft 394 kts 302°
2026-05-08 01:21 31.34292 -90.80768 36048 ft 394 kts 302°
2026-05-08 01:22 31.37979 -90.85507 36062 ft 393 kts 302°
2026-05-08 01:22 31.41664 -90.90249 36052 ft 393 kts 302°
2026-05-08 01:23 31.45323 -90.94964 36053 ft 393 kts 302°
2026-05-08 01:23 31.48996 -90.99704 36055 ft 393 kts 302°
2026-05-08 01:24 31.52666 -91.04446 36042 ft 392 kts 302°
2026-05-08 01:24 31.56333 -91.09190 36052 ft 392 kts 302°
2026-05-08 01:25 31.59997 -91.13935 36065 ft 392 kts 302°
2026-05-08 01:25 31.63661 -91.18687 36045 ft 393 kts 302°
2026-05-08 01:26 31.67327 -91.23447 36050 ft 393 kts 302°
2026-05-08 01:26 31.70990 -91.28210 36053 ft 393 kts 302°
2026-05-08 01:27 31.74630 -91.32948 36064 ft 393 kts 302°
2026-05-08 01:27 31.78288 -91.37716 36063 ft 392 kts 302°
2026-05-08 01:28 31.81942 -91.42485 36074 ft 392 kts 302°
2026-05-08 01:28 31.85593 -91.47255 36075 ft 392 kts 302°
2026-05-08 01:29 31.89238 -91.52025 36074 ft 392 kts 302°
2026-05-08 01:29 31.92878 -91.56795 36072 ft 392 kts 302°
2026-05-08 01:30 31.96518 -91.61569 36073 ft 392 kts 302°
2026-05-08 01:30 32.00132 -91.66316 36077 ft 392 kts 301°
2026-05-08 01:31 32.03767 -91.71096 36083 ft 391 kts 301°
2026-05-08 01:31 32.07401 -91.75881 36080 ft 391 kts 301°
2026-05-08 01:32 32.11027 -91.80664 36068 ft 391 kts 301°
2026-05-08 01:32 32.14655 -91.85455 36062 ft 391 kts 301°
2026-05-08 01:33 32.18279 -91.90243 36068 ft 390 kts 301°
2026-05-08 01:33 32.21889 -91.95022 36074 ft 390 kts 301°
2026-05-08 01:34 32.25502 -91.99811 36066 ft 390 kts 301°
2026-05-08 01:34 32.29086 -92.04569 36068 ft 390 kts 301°
2026-05-08 01:35 32.32688 -92.09355 36071 ft 390 kts 301°
2026-05-08 01:35 32.36289 -92.14148 36071 ft 390 kts 301°
2026-05-08 01:36 32.39890 -92.18943 36073 ft 390 kts 301°
2026-05-08 01:36 32.42882 -92.22933 36074 ft 389 kts 301°
2026-05-08 01:37 32.46481 -92.27741 36071 ft 390 kts 301°
2026-05-08 01:37 32.50076 -92.32548 36067 ft 389 kts 301°
2026-05-08 01:38 32.53666 -92.37354 36067 ft 389 kts 301°
2026-05-08 01:38 32.57251 -92.42160 36071 ft 389 kts 301°
2026-05-08 01:39 32.60836 -92.46973 36059 ft 389 kts 301°
2026-05-08 01:39 32.64417 -92.51783 36060 ft 389 kts 301°
2026-05-08 01:40 32.67986 -92.56555 36059 ft 390 kts 302°
2026-05-08 01:40 32.71819 -92.61157 36061 ft 393 kts 304°
2026-05-08 01:41 32.75693 -92.65734 36055 ft 392 kts 304°
2026-05-08 01:41 32.79528 -92.70326 36060 ft 391 kts 303°
2026-05-08 01:42 32.83345 -92.74924 36064 ft 390 kts 303°
2026-05-08 01:42 32.87152 -92.79519 36056 ft 390 kts 303°
2026-05-08 01:43 32.90953 -92.84114 36061 ft 389 kts 303°
2026-05-08 01:43 32.94725 -92.88679 36059 ft 389 kts 303°
2026-05-08 01:44 32.98514 -92.93273 36058 ft 388 kts 303°
2026-05-08 01:44 33.02299 -92.97867 36055 ft 388 kts 303°
2026-05-08 01:45 33.06087 -93.02472 36058 ft 388 kts 303°
2026-05-08 01:45 33.09876 -93.07082 36060 ft 389 kts 303°
2026-05-08 01:46 33.13657 -93.11688 36051 ft 388 kts 303°
2026-05-08 01:46 33.17409 -93.16266 36053 ft 388 kts 303°
2026-05-08 01:47 33.21208 -93.20907 36058 ft 388 kts 303°
2026-05-08 01:47 33.24954 -93.25489 36048 ft 388 kts 303°
2026-05-08 01:48 33.30609 -93.32418 36055 ft 388 kts 303°
2026-05-08 01:48 33.34377 -93.37042 36055 ft 388 kts 303°
2026-05-08 01:49 33.38146 -93.41674 36059 ft 388 kts 302°
2026-05-08 01:49 33.41891 -93.46279 36056 ft 388 kts 302°
2026-05-08 01:50 33.45652 -93.50914 36057 ft 388 kts 302°
2026-05-08 01:50 33.49419 -93.55563 36051 ft 388 kts 302°
2026-05-08 01:51 33.53176 -93.60204 36060 ft 388 kts 302°
2026-05-08 01:51 33.56939 -93.64859 36057 ft 388 kts 302°
2026-05-08 01:52 33.60692 -93.69509 36056 ft 388 kts 302°
2026-05-08 01:52 33.64420 -93.74134 36056 ft 387 kts 302°
2026-05-08 01:53 33.68164 -93.78783 36054 ft 387 kts 302°
2026-05-08 01:53 33.71903 -93.83434 36053 ft 386 kts 302°
2026-05-08 01:54 33.75632 -93.88076 36058 ft 386 kts 302°
2026-05-08 01:54 33.79364 -93.92730 36055 ft 386 kts 302°
2026-05-08 01:55 33.83083 -93.97373 36043 ft 386 kts 302°
2026-05-08 01:55 33.86780 -94.01995 36044 ft 385 kts 302°
2026-05-08 01:56 33.90497 -94.06649 36031 ft 385 kts 302°
2026-05-08 01:56 33.94209 -94.11306 36031 ft 385 kts 302°
2026-05-08 01:57 33.97917 -94.15959 36030 ft 385 kts 302°
2026-05-08 01:57 34.01627 -94.20624 36033 ft 385 kts 302°
2026-05-08 01:58 34.05337 -94.25293 36032 ft 385 kts 302°
2026-05-08 01:58 34.09043 -94.29965 36028 ft 385 kts 302°
2026-05-08 01:59 34.12752 -94.34646 36021 ft 386 kts 301°
2026-05-08 01:59 34.16461 -94.39336 36021 ft 386 kts 301°
2026-05-08 02:00 34.20146 -94.43997 36036 ft 386 kts 302°
2026-05-08 02:00 34.23853 -94.48696 36052 ft 386 kts 301°
2026-05-08 02:01 34.27560 -94.53398 36052 ft 386 kts 301°
2026-05-08 02:01 34.31258 -94.58095 36041 ft 386 kts 301°
2026-05-08 02:02 34.34953 -94.62799 36041 ft 385 kts 301°
2026-05-08 02:02 34.38646 -94.67505 36039 ft 385 kts 301°
2026-05-08 02:03 34.42337 -94.72218 36050 ft 385 kts 301°
2026-05-08 02:03 34.46002 -94.76901 36042 ft 385 kts 301°
2026-05-08 02:04 34.49684 -94.81609 36052 ft 384 kts 301°
2026-05-08 02:04 34.53352 -94.86311 36051 ft 384 kts 301°
2026-05-08 02:05 34.57020 -94.91017 36052 ft 383 kts 301°
2026-05-08 02:05 34.60682 -94.95722 36043 ft 383 kts 301°
2026-05-08 02:06 34.64335 -95.00422 36044 ft 382 kts 301°
2026-05-08 02:06 34.67983 -95.05119 36039 ft 382 kts 301°
2026-05-08 02:07 34.71622 -95.09814 36035 ft 381 kts 301°
2026-05-08 02:07 34.75238 -95.14487 36027 ft 381 kts 301°
2026-05-08 02:08 34.78871 -95.19187 36031 ft 381 kts 300°
2026-05-08 02:08 34.82501 -95.23892 36029 ft 381 kts 300°
2026-05-08 02:09 34.86131 -95.28599 36031 ft 381 kts 300°
2026-05-08 02:09 34.89762 -95.33316 36031 ft 381 kts 300°
2026-05-08 02:10 34.93388 -95.38032 36032 ft 381 kts 300°
2026-05-08 02:10 34.96987 -95.42721 36036 ft 381 kts 300°
2026-05-08 02:11 35.00611 -95.47448 36032 ft 381 kts 300°
2026-05-08 02:11 35.04233 -95.52180 36036 ft 381 kts 300°
2026-05-08 02:12 35.07854 -95.56915 36057 ft 381 kts 300°
2026-05-08 02:12 35.11469 -95.61651 36037 ft 381 kts 300°
2026-05-08 02:13 35.15078 -95.66386 36042 ft 381 kts 300°
2026-05-08 02:13 35.18688 -95.71126 36047 ft 381 kts 300°
2026-05-08 02:14 35.22293 -95.75869 36045 ft 380 kts 300°
2026-05-08 02:14 35.25892 -95.80610 36037 ft 380 kts 300°
2026-05-08 02:15 35.29493 -95.85358 36036 ft 380 kts 300°
2026-05-08 02:15 35.33083 -95.90102 36043 ft 379 kts 300°
2026-05-08 02:16 35.36671 -95.94846 36045 ft 379 kts 300°
2026-05-08 02:16 35.40249 -95.99586 36035 ft 379 kts 300°
2026-05-08 02:17 35.43825 -96.04330 36021 ft 378 kts 300°
2026-05-08 02:17 35.47395 -96.09072 36027 ft 378 kts 300°
2026-05-08 02:18 35.50958 -96.13812 36025 ft 378 kts 300°
2026-05-08 02:18 35.54519 -96.18555 36022 ft 377 kts 300°
2026-05-08 02:19 35.58056 -96.23273 36023 ft 377 kts 300°
2026-05-08 02:19 35.61615 -96.28026 36021 ft 377 kts 300°
2026-05-08 02:20 35.65164 -96.32772 36019 ft 377 kts 300°
2026-05-08 02:20 35.68716 -96.37528 36022 ft 377 kts 300°
2026-05-08 02:21 35.72264 -96.42289 36015 ft 377 kts 299°
2026-05-08 02:21 35.75459 -96.47290 36008 ft 367 kts 292°
2026-05-08 02:22 35.78218 -96.52549 36012 ft 366 kts 291°
2026-05-08 02:22 35.80522 -96.56915 36016 ft 366 kts 292°
2026-05-08 02:23 35.83752 -96.63038 36018 ft 367 kts 292°
2026-05-08 02:23 35.86529 -96.68321 36012 ft 368 kts 292°
2026-05-08 02:24 35.88860 -96.72762 36014 ft 368 kts 292°
2026-05-08 02:24 35.91618 -96.78029 36011 ft 368 kts 292°
2026-05-08 02:25 35.94390 -96.83333 36011 ft 368 kts 292°
2026-05-08 02:25 35.97169 -96.88658 36004 ft 368 kts 291°
2026-05-08 02:26 35.99940 -96.93979 35993 ft 369 kts 291°
2026-05-08 02:26 36.02714 -96.99314 35986 ft 369 kts 292°
2026-05-08 02:27 36.05492 -97.04663 35984 ft 370 kts 292°
2026-05-08 02:27 36.08275 -97.10026 35984 ft 371 kts 292°
2026-05-08 02:28 36.11059 -97.15405 35987 ft 372 kts 292°
2026-05-08 02:28 36.13846 -97.20793 35985 ft 372 kts 292°
2026-05-08 02:29 36.16616 -97.26161 35984 ft 373 kts 292°
2026-05-08 02:29 36.19406 -97.31576 35994 ft 373 kts 292°
2026-05-08 02:30 36.22199 -97.37004 35984 ft 374 kts 292°
2026-05-08 02:30 36.24994 -97.42448 35988 ft 375 kts 292°
2026-05-08 02:31 36.27794 -97.47905 35984 ft 375 kts 292°
2026-05-08 02:31 36.30576 -97.53336 35989 ft 376 kts 292°
2026-05-08 02:32 36.33376 -97.58815 35982 ft 376 kts 292°
2026-05-08 02:32 36.36174 -97.64299 35975 ft 376 kts 292°
2026-05-08 02:33 36.38970 -97.69782 35980 ft 375 kts 292°
2026-05-08 02:33 36.41755 -97.75256 35977 ft 375 kts 292°
2026-05-08 02:34 36.44537 -97.80734 35969 ft 375 kts 292°
2026-05-08 02:34 36.47299 -97.86181 35966 ft 374 kts 292°
2026-05-08 02:35 36.50071 -97.91657 35953 ft 374 kts 292°
2026-05-08 02:35 36.52843 -97.97140 35941 ft 374 kts 292°
2026-05-08 02:36 36.55609 -98.02621 35933 ft 374 kts 292°
2026-05-08 02:36 36.58376 -98.08116 35926 ft 374 kts 292°
2026-05-08 02:37 36.61141 -98.13614 35923 ft 375 kts 292°
2026-05-08 02:37 36.63909 -98.19125 35928 ft 376 kts 292°
2026-05-08 02:38 36.66665 -98.24625 35932 ft 377 kts 292°
2026-05-08 02:38 36.69441 -98.30173 35937 ft 377 kts 292°
2026-05-08 02:39 36.72219 -98.35733 35940 ft 378 kts 292°
2026-05-08 02:39 36.75007 -98.41320 35942 ft 379 kts 292°
2026-05-08 02:40 36.77791 -98.46909 35951 ft 380 kts 292°
2026-05-08 02:40 36.80579 -98.52516 35955 ft 380 kts 292°
2026-05-08 02:41 36.83371 -98.58141 35956 ft 381 kts 292°
2026-05-08 02:41 36.86146 -98.63740 35962 ft 382 kts 293°
2026-05-08 02:42 36.88942 -98.69393 35963 ft 383 kts 293°
2026-05-08 02:42 36.91745 -98.75069 35966 ft 384 kts 293°
2026-05-08 02:43 36.94546 -98.80748 35952 ft 382 kts 293°
2026-05-08 02:43 36.97332 -98.86408 35952 ft 383 kts 293°
2026-05-08 02:44 37.00121 -98.92087 35946 ft 383 kts 293°
2026-05-08 02:44 37.02887 -98.97723 35944 ft 383 kts 293°
2026-05-08 02:45 37.05670 -99.03407 35942 ft 384 kts 293°
2026-05-08 02:45 37.08466 -99.09126 35951 ft 385 kts 293°
2026-05-08 02:46 37.11260 -99.14851 35962 ft 386 kts 293°
2026-05-08 02:46 37.14059 -99.20599 35965 ft 387 kts 293°
2026-05-08 02:47 37.16867 -99.26369 35954 ft 386 kts 294°
2026-05-08 02:47 37.19638 -99.32078 35961 ft 386 kts 293°
2026-05-08 02:48 37.22428 -99.37834 35962 ft 386 kts 294°
2026-05-08 02:48 37.25209 -99.43583 35953 ft 386 kts 294°
2026-05-08 02:49 37.27662 -99.48661 35952 ft 386 kts 294°
2026-05-08 02:49 37.30446 -99.54434 35959 ft 386 kts 294°
2026-05-08 02:50 37.33228 -99.60211 35956 ft 387 kts 294°
2026-05-08 02:50 37.36010 -99.66001 35956 ft 387 kts 294°
2026-05-08 02:51 37.38790 -99.71796 35956 ft 387 kts 294°
2026-05-08 02:51 37.41572 -99.77609 35960 ft 388 kts 294°
2026-05-08 02:52 37.44352 -99.83421 35956 ft 388 kts 294°
2026-05-08 02:52 37.47114 -99.89207 35949 ft 388 kts 294°
2026-05-08 02:53 37.49893 -99.95042 35949 ft 388 kts 294°
2026-05-08 02:53 37.52670 -100.00883 35941 ft 388 kts 294°
2026-05-08 02:54 37.55443 -100.06730 35941 ft 389 kts 295°
2026-05-08 02:54 37.58217 -100.12583 35941 ft 389 kts 295°
2026-05-08 02:55 37.62361 -100.21348 35943 ft 390 kts 295°
2026-05-08 02:56 37.65133 -100.27223 35945 ft 390 kts 295°
2026-05-08 02:56 37.67904 -100.33108 35947 ft 390 kts 295°
2026-05-08 02:57 37.70674 -100.39001 35950 ft 390 kts 295°
2026-05-08 02:57 37.73444 -100.44906 35952 ft 391 kts 295°
2026-05-08 02:58 37.76210 -100.50812 35949 ft 390 kts 295°
2026-05-08 02:58 37.78976 -100.56730 35937 ft 391 kts 295°
2026-05-08 02:59 37.81741 -100.62653 35934 ft 391 kts 295°
2026-05-08 02:59 37.84483 -100.68542 35936 ft 391 kts 295°
2026-05-08 03:00 37.87239 -100.74473 35933 ft 391 kts 295°
2026-05-08 03:00 37.89996 -100.80414 35930 ft 391 kts 295°
2026-05-08 03:01 37.92751 -100.86359 35933 ft 391 kts 295°
2026-05-08 03:01 37.95507 -100.92320 35938 ft 391 kts 295°
2026-05-08 03:02 37.98255 -100.98277 35946 ft 392 kts 295°
2026-05-08 03:02 38.00987 -101.04209 35955 ft 392 kts 295°
2026-05-08 03:03 38.03734 -101.10192 35969 ft 392 kts 297°
2026-05-08 03:03 38.06480 -101.16173 35967 ft 393 kts 297°
2026-05-08 03:04 38.09229 -101.22173 35967 ft 393 kts 297°
2026-05-08 03:04 38.11979 -101.28180 35970 ft 394 kts 297°
2026-05-08 03:05 38.14731 -101.34202 35968 ft 395 kts 297°
2026-05-08 03:05 38.17491 -101.40250 35967 ft 395 kts 297°
2026-05-08 03:06 38.20247 -101.46256 35963 ft 396 kts 298°
2026-05-08 03:06 38.23216 -101.52172 35965 ft 396 kts 300°
2026-05-08 03:07 38.26205 -101.58072 35964 ft 397 kts 300°
2026-05-08 03:07 38.29172 -101.63997 35961 ft 396 kts 300°
2026-05-08 03:08 38.32127 -101.69927 35963 ft 396 kts 300°
2026-05-08 03:08 38.35075 -101.75857 35954 ft 396 kts 300°
2026-05-08 03:09 38.38005 -101.81761 35946 ft 396 kts 300°
2026-05-08 03:09 38.40952 -101.87708 35946 ft 396 kts 300°
2026-05-08 03:10 38.43893 -101.93652 35934 ft 397 kts 300°
2026-05-08 03:10 38.46859 -101.99662 35953 ft 402 kts 300°
2026-05-08 03:11 38.49832 -102.05695 35952 ft 401 kts 300°
2026-05-08 03:11 38.52803 -102.11734 35953 ft 401 kts 300°
2026-05-08 03:12 38.55770 -102.17775 35952 ft 401 kts 300°
2026-05-08 03:12 38.58708 -102.23781 35953 ft 401 kts 300°
2026-05-08 03:13 38.61659 -102.29840 35954 ft 401 kts 300°
2026-05-08 03:13 38.64604 -102.35898 35964 ft 401 kts 300°
2026-05-08 03:14 38.67544 -102.41957 35971 ft 401 kts 300°
2026-05-08 03:14 38.70480 -102.48016 35972 ft 401 kts 300°
2026-05-08 03:15 38.72921 -102.53064 35974 ft 401 kts 300°
2026-05-08 03:15 38.75857 -102.59144 35975 ft 401 kts 300°
2026-05-08 03:16 38.78790 -102.65230 35985 ft 401 kts 300°
2026-05-08 03:16 38.81724 -102.71332 35981 ft 401 kts 300°
2026-05-08 03:17 38.84645 -102.77418 35982 ft 400 kts 300°
2026-05-08 03:17 38.87564 -102.83510 35983 ft 400 kts 300°
2026-05-08 03:18 38.90473 -102.89595 35937 ft 400 kts 300°
2026-05-08 03:18 38.91930 -102.92644 35615 ft 401 kts 300°
2026-05-08 03:18 38.93391 -102.95709 34903 ft 404 kts 300°
2026-05-08 03:18 38.94870 -102.98814 33915 ft 411 kts 300°
2026-05-08 03:19 38.96357 -103.01916 33192 ft 403 kts 301°
2026-05-08 03:19 38.97824 -103.04938 32432 ft 395 kts 301°
2026-05-08 03:19 38.99263 -103.07899 31673 ft 387 kts 301°
2026-05-08 03:19 39.00676 -103.10811 30967 ft 379 kts 301°
2026-05-08 03:20 39.02056 -103.13663 30500 ft 381 kts 301°
2026-05-08 03:20 39.03476 -103.16610 29961 ft 403 kts 301°
2026-05-08 03:20 39.04972 -103.19719 29390 ft 412 kts 300°
2026-05-08 03:20 39.06469 -103.22857 28826 ft 411 kts 300°
2026-05-08 03:21 39.07951 -103.25982 28262 ft 407 kts 300°
2026-05-08 03:21 39.09413 -103.29070 27704 ft 401 kts 300°
2026-05-08 03:21 39.10848 -103.32102 27160 ft 391 kts 300°
2026-05-08 03:21 39.12239 -103.35042 26654 ft 378 kts 300°
2026-05-08 03:22 39.13599 -103.37921 26132 ft 374 kts 300°
2026-05-08 03:22 39.14940 -103.40759 25620 ft 369 kts 300°
2026-05-08 03:22 39.16263 -103.43561 25123 ft 364 kts 300°
2026-05-08 03:22 39.17570 -103.46330 24623 ft 359 kts 300°
2026-05-08 03:23 39.18857 -103.49059 24133 ft 354 kts 300°
2026-05-08 03:23 39.20128 -103.51757 23648 ft 350 kts 300°
2026-05-08 03:23 39.21382 -103.54423 23154 ft 347 kts 300°
2026-05-08 03:23 39.22672 -103.57171 22653 ft 371 kts 300°
2026-05-08 03:24 39.24038 -103.60083 22114 ft 385 kts 300°
2026-05-08 03:24 39.25433 -103.63031 21566 ft 383 kts 301°
2026-05-08 03:24 39.26815 -103.65940 21018 ft 377 kts 301°
2026-05-08 03:24 39.28166 -103.68807 20522 ft 369 kts 300°
2026-05-08 03:25 39.29529 -103.71536 20321 ft 355 kts 303°
2026-05-08 03:25 39.30889 -103.74107 19827 ft 349 kts 303°
2026-05-08 03:25 39.32252 -103.76695 19334 ft 344 kts 303°
2026-05-08 03:25 39.33570 -103.79197 19191 ft 330 kts 304°
2026-05-08 03:26 39.34833 -103.81594 19062 ft 315 kts 304°
2026-05-08 03:26 39.36045 -103.83891 18664 ft 305 kts 304°
2026-05-08 03:26 39.37235 -103.86148 18049 ft 302 kts 304°
2026-05-08 03:26 39.38413 -103.88383 17440 ft 300 kts 304°
2026-05-08 03:27 39.39582 -103.90597 16805 ft 297 kts 304°
2026-05-08 03:27 39.40743 -103.92800 16159 ft 296 kts 304°
2026-05-08 03:27 39.41882 -103.94963 15567 ft 293 kts 303°
2026-05-08 03:27 39.43013 -103.97128 15141 ft 284 kts 301°
2026-05-08 03:28 39.43817 -103.99442 14893 ft 285 kts 286°
2026-05-08 03:28 39.44090 -104.01945 14645 ft 276 kts 271°
2026-05-08 03:28 39.43992 -104.04350 14496 ft 259 kts 269°
2026-05-08 03:28 39.43905 -104.06607 14304 ft 245 kts 270°
2026-05-08 03:29 39.43832 -104.08796 13840 ft 243 kts 270°
2026-05-08 03:29 39.43762 -104.10968 13426 ft 241 kts 269°
2026-05-08 03:29 39.43691 -104.13119 13117 ft 235 kts 269°
2026-05-08 03:29 39.43619 -104.15205 13025 ft 234 kts 269°
2026-05-08 03:30 39.43472 -104.19441 13035 ft 235 kts 269°
2026-05-08 03:30 39.43322 -104.23673 13038 ft 235 kts 269°
2026-05-08 03:31 39.43169 -104.27904 13044 ft 235 kts 269°
2026-05-08 03:31 39.43015 -104.32101 12436 ft 238 kts 269°
2026-05-08 03:32 39.42938 -104.34229 12130 ft 233 kts 269°
2026-05-08 03:32 39.42862 -104.36298 12015 ft 231 kts 268°
2026-05-08 03:32 39.42788 -104.38377 11777 ft 232 kts 269°
2026-05-08 03:32 39.42710 -104.40476 11320 ft 235 kts 268°
2026-05-08 03:33 39.42632 -104.42562 11100 ft 229 kts 268°
2026-05-08 03:33 39.42556 -104.44645 11048 ft 234 kts 268°
2026-05-08 03:33 39.42486 -104.46739 10910 ft 233 kts 269°
2026-05-08 03:33 39.42417 -104.48846 10496 ft 236 kts 269°
2026-05-08 03:34 39.42417 -104.50966 10113 ft 234 kts 279°
2026-05-08 03:34 39.42935 -104.52959 9567 ft 238 kts 300°
2026-05-08 03:34 39.43907 -104.54696 9185 ft 236 kts 306°
2026-05-08 03:34 39.44873 -104.56376 9067 ft 235 kts 306°
2026-05-08 03:35 39.45836 -104.58075 9051 ft 237 kts 305°
2026-05-08 03:35 39.46883 -104.59713 9053 ft 236 kts 312°
2026-05-08 03:35 39.49209 -104.62696 9048 ft 238 kts 325°
2026-05-08 03:36 39.50723 -104.63604 9042 ft 240 kts 342°
2026-05-08 03:36 39.52338 -104.64164 9043 ft 241 kts 345°
2026-05-08 03:36 39.53999 -104.64477 9044 ft 242 kts 354°
2026-05-08 03:36 39.55686 -104.64521 9038 ft 242 kts 358°
2026-05-08 03:37 39.57373 -104.64488 9030 ft 242 kts 358°
2026-05-08 03:37 39.59059 -104.64468 9019 ft 242 kts 358°
2026-05-08 03:37 39.60747 -104.64447 9010 ft 242 kts 358°
2026-05-08 03:37 39.62434 -104.64427 9018 ft 242 kts 358°
2026-05-08 03:38 39.64087 -104.64405 8998 ft 231 kts 358°
2026-05-08 03:38 39.65631 -104.64386 8789 ft 218 kts 358°
2026-05-08 03:38 39.67106 -104.64368 8521 ft 204 kts 358°
2026-05-08 03:38 39.68470 -104.64351 8261 ft 189 kts 358°
2026-05-08 03:39 39.69741 -104.64336 7999 ft 177 kts 359°
2026-05-08 03:39 39.70926 -104.64321 7786 ft 163 kts 359°
2026-05-08 03:39 39.72013 -104.64308 7565 ft 150 kts 359°
2026-05-08 03:39 39.73063 -104.64296 7373 ft 152 kts 360°
2026-05-08 03:40 39.74116 -104.64282 7166 ft 150 kts
2026-05-08 03:40 39.75160 -104.64270 6967 ft 150 kts
2026-05-08 03:40 39.76205 -104.64257 6767 ft 151 kts 359°
2026-05-08 03:40 39.77257 -104.64245 6566 ft 151 kts 359°
2026-05-08 03:41 39.78304 -104.64231 6362 ft 150 kts 359°
2026-05-08 03:41 39.79347 -104.64219 6166 ft 149 kts 360°
2026-05-08 03:41 39.80385 -104.64206 5971 ft 149 kts 360°
2026-05-08 03:41 39.81416 -104.64194 5771 ft 147 kts 360°
2026-05-08 03:42 39.82439 -104.64181 5575 ft 147 kts 360°
2026-05-08 03:42 39.83455 -104.64172 5390 ft 145 kts 360°
2026-05-08 03:42 39.84391 -104.64160 5364 ft 112 kts
2026-05-08 03:42 39.84865 -104.64157 5361 ft 35 kts
2026-05-08 03:43 39.85089 -104.64169 5359 ft 28 kts 349°
2026-05-08 03:43 39.85243 -104.64249 5357 ft 19 kts 333°
2026-05-08 03:43 39.85360 -104.64330 5355 ft 17 kts 332°
2026-05-08 03:43 39.85456 -104.64358 5355 ft 15 kts 359°
2026-05-08 03:44 39.85571 -104.64357 5353 ft 18 kts
2026-05-08 03:44 39.85707 -104.64353 5352 ft 21 kts
2026-05-08 03:44 39.85847 -104.64404 5351 ft 22 kts 329°
2026-05-08 03:44 39.85977 -104.64502 5350 ft 20 kts 330°
2026-05-08 03:45 39.86099 -104.64590 5348 ft 21 kts 331°
2026-05-08 03:45 39.86213 -104.64675 5348 ft 19 kts 330°
2026-05-08 03:45 39.86330 -104.64760 5350 ft 19 kts 331°
2026-05-08 03:45 39.86413 -104.64820 5352 ft 13 kts 331°
2026-05-08 03:46 39.86482 -104.64880 5355 ft 11 kts 308°
2026-05-08 03:46 39.86491 -104.64978 5358 ft 11 kts 270°
2026-05-08 03:46 39.86490 -104.65084 5360 ft 12 kts 270°
2026-05-08 03:46 39.86490 -104.65196 5362 ft 13 kts 270°
2026-05-08 03:47 39.86490 -104.65311 5362 ft 13 kts 272°
2026-05-08 03:47 39.86494 -104.65431 5363 ft 14 kts 272°
2026-05-08 03:47 39.86495 -104.65562 5366 ft 15 kts 270°
2026-05-08 03:47 39.86496 -104.65704 5371 ft 16 kts 270°
2026-05-08 03:48 39.86498 -104.65853 5372 ft 17 kts 271°
2026-05-08 03:48 39.86499 -104.66012 5376 ft 18 kts 270°
2026-05-08 03:48 39.86500 -104.66151 5383 ft 11 kts 271°
2026-05-08 03:48 39.86457 -104.66226 5380 ft 13 kts 183°
2026-05-08 03:49 39.86355 -104.66227 5382 ft 16 kts 180°
2026-05-08 03:49 39.86235 -104.66228 5382 ft 19 kts 180°
2026-05-08 03:49 39.86098 -104.66229 5382 ft 20 kts 181°
2026-05-08 03:49 39.85958 -104.66231 5387 ft 21 kts 180°
2026-05-08 03:50 39.85826 -104.66233 5385 ft 19 kts 181°
2026-05-08 03:50 39.85686 -104.66235 5391 ft 20 kts 180°
2026-05-08 03:50 39.85545 -104.66237 5394 ft 20 kts 180°
2026-05-08 03:50 39.85409 -104.66238 5394 ft 19 kts 180°
2026-05-08 03:51 39.85297 -104.66237 5390 ft 14 kts 179°
2026-05-08 03:51 39.85216 -104.66264 5396 ft 12 kts 231°
2026-05-08 03:51 39.85205 -104.66402 5392 ft 18 kts 271°
2026-05-08 03:51 39.85212 -104.66533 5388 ft 13 kts 292°
2026-05-08 03:52 39.85230 -104.66677 5384 ft 19 kts 270°
2026-05-08 03:52 39.85232 -104.66860 5380 ft 17 kts 270°
2026-05-08 03:52 39.85233 -104.66975 5380 ft 9 kts 271°
2026-05-08 03:52 39.85262 -104.67007 5383 ft 2 kts 357°
2026-05-08 03:53 39.85263 -104.67007 5383 ft 0 kts
2026-05-08 03:53 39.85271 -104.66994 5383 ft 6 kts 59°
2026-05-08 03:53 39.85275 -104.66913 5383 ft 6 kts 88°
2026-05-08 03:53 39.85305 -104.66890 5383 ft 5 kts
2026-05-08 03:54 39.85330 -104.66889 5382 ft 1 kts
2026-05-08 03:54 39.85334 -104.66889 5383 ft 0 kts